QFA772 PAFA-PAJN

Flight info

Callsign QFA772
Flight time 1h 29m
Altitude 37000
Route RDFLG5 RDFLG J502 ORT Q902 IGSOM WOGUS Q902 SSR
Aircraft B738/M-L/LB1

Departure

Time 2026-04-29 10:16
Airport Fairbanks International Airport (PAFA)

Arrival

Time 2026-04-29 11:45
Airport Juneau International Airport (PAJN)
Time Latitude Longitude Altitude Speed Heading
2026-04-29 09:23 64.81682 -147.86893 448 ft 0 kts 322°
2026-04-29 10:05 64.81680 -147.86890 448 ft 1 kts 322°
2026-04-29 10:05 64.81669 -147.86870 448 ft 3 kts 322°
2026-04-29 10:06 64.81654 -147.86842 448 ft 3 kts 322°
2026-04-29 10:06 64.81638 -147.86813 448 ft 3 kts 322°
2026-04-29 10:06 64.81622 -147.86783 448 ft 3 kts 322°
2026-04-29 10:06 64.81616 -147.86774 448 ft 0 kts 322°
2026-04-29 10:07 64.81610 -147.86762 448 ft 2 kts 320°
2026-04-29 10:07 64.81598 -147.86732 448 ft 3 kts 304°
2026-04-29 10:07 64.81590 -147.86690 448 ft 3 kts 287°
2026-04-29 10:07 64.81586 -147.86643 448 ft 3 kts 271°
2026-04-29 10:08 64.81588 -147.86595 448 ft 3 kts 257°
2026-04-29 10:08 64.81592 -147.86568 448 ft 0 kts 250°
2026-04-29 10:09 64.81597 -147.86540 448 ft 2 kts 244°
2026-04-29 10:09 64.81607 -147.86503 448 ft 3 kts 229°
2026-04-29 10:10 64.81619 -147.86477 448 ft 0 kts 216°
2026-04-29 10:10 64.81623 -147.86471 448 ft 2 kts 216°
2026-04-29 10:10 64.81636 -147.86448 448 ft 3 kts 216°
2026-04-29 10:10 64.81645 -147.86433 448 ft 1 kts 216°
2026-04-29 10:11 64.81647 -147.86427 448 ft 5 kts 210°
2026-04-29 10:11 64.81568 -147.86514 448 ft 22 kts 209°
2026-04-29 10:11 64.81400 -147.86792 448 ft 37 kts 214°
2026-04-29 10:11 64.81172 -147.87203 448 ft 44 kts 218°
2026-04-29 10:12 64.80935 -147.87639 448 ft 41 kts 218°
2026-04-29 10:12 64.80729 -147.88028 448 ft 35 kts 218°
2026-04-29 10:12 64.80551 -147.88353 448 ft 30 kts 218°
2026-04-29 10:12 64.80402 -147.88621 448 ft 25 kts 214°
2026-04-29 10:13 64.80289 -147.88579 448 ft 15 kts 86°
2026-04-29 10:13 64.80327 -147.88473 448 ft 0 kts 39°
2026-04-29 10:14 64.80327 -147.88472 448 ft 0 kts 39°
2026-04-29 10:15 64.80494 -147.88165 448 ft 72 kts 38°
2026-04-29 10:15 64.81098 -147.87053 449 ft 145 kts 38°
2026-04-29 10:16 64.81990 -147.85405 836 ft 168 kts 38°
2026-04-29 10:16 64.82602 -147.84252 1326 ft 173 kts 39°
2026-04-29 10:16 64.83501 -147.80966 2216 ft 197 kts 88°
2026-04-29 10:16 64.83083 -147.77881 2859 ft 214 kts 130°
2026-04-29 10:17 64.81780 -147.76052 3500 ft 231 kts 167°
2026-04-29 10:17 64.80156 -147.75209 4234 ft 246 kts 168°
2026-04-29 10:17 64.78465 -147.74325 5187 ft 252 kts 166°
2026-04-29 10:17 64.76823 -147.72815 6175 ft 254 kts 156°
2026-04-29 10:18 64.75232 -147.70887 7108 ft 260 kts 153°
2026-04-29 10:18 64.73641 -147.68832 8050 ft 264 kts 153°
2026-04-29 10:18 64.72032 -147.66820 8946 ft 267 kts 155°
2026-04-29 10:18 64.70362 -147.64827 9771 ft 272 kts 156°
2026-04-29 10:19 64.68694 -147.62694 9902 ft 274 kts 147°
2026-04-29 10:19 64.67295 -147.59635 9939 ft 280 kts 131°
2026-04-29 10:19 64.66212 -147.55842 9943 ft 285 kts 126°
2026-04-29 10:19 64.65102 -147.51694 9932 ft 315 kts 124°
2026-04-29 10:20 64.63935 -147.47253 9953 ft 328 kts 124°
2026-04-29 10:20 64.62728 -147.42664 10260 ft 332 kts 124°
2026-04-29 10:20 64.61519 -147.38113 11183 ft 337 kts 124°
2026-04-29 10:20 64.60268 -147.33455 12075 ft 341 kts 124°
2026-04-29 10:21 64.59002 -147.28762 12980 ft 344 kts 124°
2026-04-29 10:21 64.57723 -147.24019 13906 ft 347 kts 125°
2026-04-29 10:21 64.56434 -147.19240 14836 ft 350 kts 125°
2026-04-29 10:21 64.55135 -147.14429 15766 ft 352 kts 125°
2026-04-29 10:22 64.53823 -147.09586 16685 ft 355 kts 125°
2026-04-29 10:22 64.52499 -147.04710 17593 ft 358 kts 125°
2026-04-29 10:22 64.51181 -146.99866 18468 ft 361 kts 125°
2026-04-29 10:22 64.49831 -146.94919 19313 ft 364 kts 125°
2026-04-29 10:23 64.48467 -146.89928 20116 ft 368 kts 125°
2026-04-29 10:23 64.47087 -146.84891 20898 ft 372 kts 125°
2026-04-29 10:23 64.45691 -146.79809 21661 ft 375 kts 126°
2026-04-29 10:23 64.44285 -146.74697 22396 ft 379 kts 126°
2026-04-29 10:24 64.42861 -146.69535 23108 ft 382 kts 126°
2026-04-29 10:24 64.41422 -146.64331 23784 ft 385 kts 126°
2026-04-29 10:24 64.39970 -146.59092 24455 ft 388 kts 126°
2026-04-29 10:24 64.38522 -146.53880 25054 ft 392 kts 126°
2026-04-29 10:25 64.37038 -146.48550 25635 ft 397 kts 126°
2026-04-29 10:25 64.35538 -146.43173 26199 ft 400 kts 126°
2026-04-29 10:25 64.34020 -146.37750 26724 ft 404 kts 126°
2026-04-29 10:25 64.32486 -146.32278 27224 ft 408 kts 126°
2026-04-29 10:26 64.30935 -146.26762 27716 ft 412 kts 126°
2026-04-29 10:26 64.29369 -146.21203 28176 ft 416 kts 127°
2026-04-29 10:26 64.27786 -146.15601 28621 ft 419 kts 127°
2026-04-29 10:26 64.26188 -146.09959 29049 ft 422 kts 127°
2026-04-29 10:27 64.22972 -145.98650 29817 ft 429 kts 127°
2026-04-29 10:27 64.21326 -145.92882 30040 ft 436 kts 127°
2026-04-29 10:27 64.19651 -145.87034 30268 ft 441 kts 127°
2026-04-29 10:28 64.17962 -145.81144 30591 ft 443 kts 127°
2026-04-29 10:28 64.16266 -145.75241 30931 ft 444 kts 127°
2026-04-29 10:28 64.14565 -145.69337 31305 ft 444 kts 127°
2026-04-29 10:28 64.12885 -145.63524 31669 ft 443 kts 127°
2026-04-29 10:29 64.11179 -145.57643 32032 ft 443 kts 127°
2026-04-29 10:29 64.09472 -145.51774 32388 ft 443 kts 128°
2026-04-29 10:29 64.07764 -145.45914 32725 ft 443 kts 128°
2026-04-29 10:29 64.06055 -145.40062 33062 ft 442 kts 128°
2026-04-29 10:30 64.04348 -145.34235 33389 ft 442 kts 128°
2026-04-29 10:30 64.02635 -145.28404 33705 ft 442 kts 128°
2026-04-29 10:30 64.00921 -145.22583 34010 ft 442 kts 128°
2026-04-29 10:30 63.99205 -145.16772 34308 ft 442 kts 128°
2026-04-29 10:31 63.97505 -145.11030 34528 ft 444 kts 128°
2026-04-29 10:31 63.95774 -145.05198 34764 ft 445 kts 128°
2026-04-29 10:31 63.94037 -144.99362 35031 ft 446 kts 128°
2026-04-29 10:31 63.92297 -144.93524 35273 ft 446 kts 128°
2026-04-29 10:32 63.90551 -144.87685 35513 ft 447 kts 128°
2026-04-29 10:32 63.88800 -144.81845 35752 ft 448 kts 129°
2026-04-29 10:32 63.87044 -144.76005 35985 ft 448 kts 129°
2026-04-29 10:32 63.85284 -144.70167 36223 ft 448 kts 129°
2026-04-29 10:33 63.83524 -144.64342 36441 ft 449 kts 129°
2026-04-29 10:33 63.81756 -144.58506 36670 ft 449 kts 129°
2026-04-29 10:33 63.79984 -144.52672 36887 ft 450 kts 129°
2026-04-29 10:33 63.78229 -144.46911 37015 ft 452 kts 129°
2026-04-29 10:34 63.76435 -144.41038 37022 ft 456 kts 129°
2026-04-29 10:34 63.72817 -144.29232 37028 ft 456 kts 129°
2026-04-29 10:35 63.69828 -144.19515 37029 ft 451 kts 129°
2026-04-29 10:35 63.66252 -144.07965 37031 ft 448 kts 129°
2026-04-29 10:36 63.62100 -143.94632 37033 ft 447 kts 129°
2026-04-29 10:36 63.58522 -143.83201 37034 ft 447 kts 129°
2026-04-29 10:37 63.54907 -143.71857 37036 ft 447 kts 130°
2026-04-29 10:37 63.51877 -143.62467 37036 ft 447 kts 130°
2026-04-29 10:38 63.47652 -143.49339 37036 ft 447 kts 130°
2026-04-29 10:38 63.44007 -143.38086 37052 ft 447 kts 130°
2026-04-29 10:39 63.40353 -143.26879 37056 ft 447 kts 130°
2026-04-29 10:39 63.37307 -143.17567 37057 ft 447 kts 130°
2026-04-29 10:40 63.33043 -143.04596 37058 ft 446 kts 131°
2026-04-29 10:40 63.29989 -142.95353 37058 ft 446 kts 131°
2026-04-29 10:41 63.26315 -142.84284 37059 ft 445 kts 131°
2026-04-29 10:41 63.22631 -142.73237 37059 ft 445 kts 131°
2026-04-29 10:42 63.18941 -142.62228 37059 ft 445 kts 131°
2026-04-29 10:42 63.14647 -142.49482 37059 ft 444 kts 131°
2026-04-29 10:43 63.11567 -142.40388 37060 ft 444 kts 131°
2026-04-29 10:43 63.07858 -142.29477 37059 ft 444 kts 131°
2026-04-29 10:44 63.04143 -142.18605 37059 ft 444 kts 131°
2026-04-29 10:44 63.00418 -142.07755 37059 ft 444 kts 132°
2026-04-29 10:45 62.96707 -141.97008 37060 ft 444 kts 132°
2026-04-29 10:45 62.92600 -141.87118 37065 ft 435 kts 142°
2026-04-29 10:46 62.88093 -141.78263 37061 ft 434 kts 143°
2026-04-29 10:46 62.83556 -141.69509 37060 ft 435 kts 143°
2026-04-29 10:47 62.79028 -141.60731 37061 ft 435 kts 143°
2026-04-29 10:47 62.74519 -141.52027 37060 ft 435 kts 143°
2026-04-29 10:48 62.69970 -141.43306 37060 ft 435 kts 143°
2026-04-29 10:48 62.65418 -141.34607 37060 ft 435 kts 143°
2026-04-29 10:49 62.60863 -141.25937 37060 ft 435 kts 143°
2026-04-29 10:49 62.56338 -141.17364 37060 ft 434 kts 143°
2026-04-29 10:50 62.51789 -141.08784 37061 ft 434 kts 143°
2026-04-29 10:50 62.47231 -141.00224 37062 ft 434 kts 143°
2026-04-29 10:51 62.42672 -140.91699 37062 ft 433 kts 143°
2026-04-29 10:51 62.38139 -140.83281 37062 ft 433 kts 143°
2026-04-29 10:52 62.33572 -140.74827 37063 ft 433 kts 144°
2026-04-29 10:52 62.29009 -140.66413 37063 ft 432 kts 144°
2026-04-29 10:53 62.24452 -140.58047 37062 ft 431 kts 144°
2026-04-29 10:53 62.19921 -140.49764 37067 ft 430 kts 144°
2026-04-29 10:54 62.15362 -140.41463 37068 ft 430 kts 144°
2026-04-29 10:54 62.10795 -140.33183 37068 ft 430 kts 144°
2026-04-29 10:55 62.06258 -140.24987 37068 ft 430 kts 144°
2026-04-29 10:55 62.01694 -140.16777 37068 ft 429 kts 144°
2026-04-29 10:56 61.97129 -140.08602 37067 ft 429 kts 144°
2026-04-29 10:56 61.92554 -140.00438 37067 ft 429 kts 144°
2026-04-29 10:57 61.87974 -139.92299 37067 ft 429 kts 144°
2026-04-29 10:57 61.83420 -139.84240 37065 ft 429 kts 144°
2026-04-29 10:58 61.78833 -139.76154 37064 ft 429 kts 144°
2026-04-29 10:58 61.74237 -139.68086 37064 ft 430 kts 144°
2026-04-29 10:59 61.69633 -139.60036 37066 ft 431 kts 145°
2026-04-29 10:59 61.65044 -139.52043 37065 ft 431 kts 145°
2026-04-29 11:00 61.60413 -139.44011 37064 ft 432 kts 145°
2026-04-29 11:00 61.55770 -139.35989 37063 ft 432 kts 146°
2026-04-29 11:01 61.51118 -139.27982 37062 ft 433 kts 146°
2026-04-29 11:01 61.46492 -139.20054 37061 ft 433 kts 146°
2026-04-29 11:02 61.41824 -139.12087 37060 ft 433 kts 146°
2026-04-29 11:02 61.37135 -139.04198 37056 ft 431 kts 150°
2026-04-29 11:03 61.32132 -138.97420 37062 ft 429 kts 153°
2026-04-29 11:03 61.27085 -138.90770 37061 ft 430 kts 153°
2026-04-29 11:04 61.22063 -138.84170 37062 ft 430 kts 153°
2026-04-29 11:04 61.17013 -138.77530 37063 ft 430 kts 153°
2026-04-29 11:05 61.11951 -138.70918 37065 ft 430 kts 153°
2026-04-29 11:05 61.06881 -138.64321 37069 ft 431 kts 153°
2026-04-29 11:06 61.01833 -138.57771 37073 ft 431 kts 153°
2026-04-29 11:06 60.96746 -138.51197 37077 ft 432 kts 153°
2026-04-29 11:07 60.91649 -138.44639 37087 ft 432 kts 153°
2026-04-29 11:07 60.86545 -138.38094 37095 ft 433 kts 153°
2026-04-29 11:08 60.81430 -138.31562 37103 ft 434 kts 153°
2026-04-29 11:08 60.76332 -138.25074 37111 ft 435 kts 153°
2026-04-29 11:09 60.71184 -138.18549 37124 ft 436 kts 153°
2026-04-29 11:09 60.66021 -138.12029 37133 ft 437 kts 153°
2026-04-29 11:10 60.60879 -138.05560 37142 ft 438 kts 153°
2026-04-29 11:10 60.55697 -137.99067 37150 ft 438 kts 153°
2026-04-29 11:11 60.50500 -137.92579 37157 ft 438 kts 153°
2026-04-29 11:11 60.45296 -137.86107 37164 ft 439 kts 153°
2026-04-29 11:12 60.40080 -137.79645 37171 ft 440 kts 153°
2026-04-29 11:12 60.34895 -137.73245 37176 ft 439 kts 153°
2026-04-29 11:13 60.29674 -137.66825 37182 ft 439 kts 153°
2026-04-29 11:13 60.24450 -137.60427 37187 ft 439 kts 154°
2026-04-29 11:14 60.19231 -137.54058 37192 ft 439 kts 154°
2026-04-29 11:14 60.14005 -137.47704 37197 ft 439 kts 154°
2026-04-29 11:15 60.08813 -137.41416 37201 ft 438 kts 154°
2026-04-29 11:15 60.03591 -137.35115 37205 ft 438 kts 154°
2026-04-29 11:16 59.98371 -137.28840 37208 ft 437 kts 154°
2026-04-29 11:16 59.93135 -137.22571 37214 ft 440 kts 154°
2026-04-29 11:17 59.87915 -137.16342 37217 ft 441 kts 154°
2026-04-29 11:17 59.82656 -137.10087 36891 ft 439 kts 154°
2026-04-29 11:17 59.80050 -137.06993 36390 ft 434 kts 155°
2026-04-29 11:18 59.77476 -137.03943 35915 ft 428 kts 155°
2026-04-29 11:18 59.74935 -137.00940 35452 ft 422 kts 155°
2026-04-29 11:18 59.72426 -136.97983 34995 ft 417 kts 155°
2026-04-29 11:18 59.69948 -136.95068 34545 ft 412 kts 155°
2026-04-29 11:19 59.67533 -136.92231 34106 ft 407 kts 155°
2026-04-29 11:19 59.65114 -136.89394 33668 ft 402 kts 156°
2026-04-29 11:19 59.62708 -136.86581 33234 ft 409 kts 156°
2026-04-29 11:19 59.60201 -136.83675 32779 ft 423 kts 156°
2026-04-29 11:20 59.57662 -136.80716 32319 ft 428 kts 155°
2026-04-29 11:20 59.55106 -136.77724 31849 ft 423 kts 155°
2026-04-29 11:20 59.52602 -136.74785 31400 ft 415 kts 155°
2026-04-29 11:20 59.50142 -136.71916 30957 ft 407 kts 156°
2026-04-29 11:21 59.47719 -136.69114 30518 ft 401 kts 156°
2026-04-29 11:21 59.45333 -136.66365 30089 ft 394 kts 156°
2026-04-29 11:21 59.43014 -136.63693 29669 ft 389 kts 156°
2026-04-29 11:21 59.40698 -136.61022 29248 ft 384 kts 156°
2026-04-29 11:22 59.38410 -136.58385 28833 ft 382 kts 156°
2026-04-29 11:22 59.36062 -136.55704 28407 ft 393 kts 156°
2026-04-29 11:22 59.33724 -136.53022 27980 ft 387 kts 156°
2026-04-29 11:22 59.31417 -136.50366 27560 ft 382 kts 156°
2026-04-29 11:23 59.29141 -136.47751 27146 ft 377 kts 157°
2026-04-29 11:23 59.26923 -136.45218 26743 ft 372 kts 157°
2026-04-29 11:23 59.24701 -136.42701 26339 ft 367 kts 157°
2026-04-29 11:23 59.22481 -136.40206 25955 ft 376 kts 158°
2026-04-29 11:24 59.20199 -136.37654 25542 ft 376 kts 157°
2026-04-29 11:24 59.17951 -136.35108 25133 ft 371 kts 157°
2026-04-29 11:24 59.15735 -136.32592 24730 ft 366 kts 157°
2026-04-29 11:24 59.13546 -136.30119 24333 ft 361 kts 158°
2026-04-29 11:25 59.11411 -136.27724 23945 ft 357 kts 158°
2026-04-29 11:25 59.09273 -136.25334 23558 ft 352 kts 158°
2026-04-29 11:25 59.07125 -136.22945 23173 ft 366 kts 158°
2026-04-29 11:25 59.04917 -136.20492 22769 ft 364 kts 158°
2026-04-29 11:26 59.00599 -136.15642 21984 ft 354 kts 158°
2026-04-29 11:26 58.98482 -136.13278 21600 ft 349 kts 158°
2026-04-29 11:26 58.96390 -136.10957 21221 ft 344 kts 158°
2026-04-29 11:27 58.94312 -136.08668 20850 ft 356 kts 158°
2026-04-29 11:27 58.92160 -136.06299 20458 ft 354 kts 158°
2026-04-29 11:27 58.90042 -136.03942 20073 ft 349 kts 157°
2026-04-29 11:27 58.87957 -136.01620 19695 ft 343 kts 158°
2026-04-29 11:28 58.85900 -135.99343 19323 ft 338 kts 157°
2026-04-29 11:28 58.83834 -135.97079 18939 ft 352 kts 157°
2026-04-29 11:28 58.81692 -135.94747 18445 ft 355 kts 156°
2026-04-29 11:28 58.79561 -135.92399 17988 ft 351 kts 156°
2026-04-29 11:29 58.77454 -135.90069 17527 ft 347 kts 156°
2026-04-29 11:29 58.75371 -135.87775 17063 ft 343 kts 156°
2026-04-29 11:29 58.73336 -135.85549 16648 ft 338 kts 156°
2026-04-29 11:29 58.71308 -135.83335 16269 ft 332 kts 156°
2026-04-29 11:30 58.69316 -135.81163 15907 ft 327 kts 156°
2026-04-29 11:30 58.67312 -135.78989 15549 ft 335 kts 156°
2026-04-29 11:30 58.65287 -135.76791 15185 ft 334 kts 156°
2026-04-29 11:30 58.63272 -135.74596 14824 ft 332 kts 156°
2026-04-29 11:31 58.61263 -135.72409 14462 ft 331 kts 156°
2026-04-29 11:31 58.59258 -135.70233 14104 ft 331 kts 156°
2026-04-29 11:31 58.57291 -135.68104 13750 ft 327 kts 156°
2026-04-29 11:31 58.55334 -135.65983 13397 ft 319 kts 156°
2026-04-29 11:32 58.53418 -135.63910 13054 ft 318 kts 156°
2026-04-29 11:32 58.51453 -135.61805 12705 ft 325 kts 156°
2026-04-29 11:32 58.49502 -135.59705 12354 ft 317 kts 156°
2026-04-29 11:32 58.47605 -135.57653 12012 ft 311 kts 156°
2026-04-29 11:33 58.45692 -135.55601 11672 ft 318 kts 156°
2026-04-29 11:33 58.43785 -135.53560 11327 ft 319 kts 155°
2026-04-29 11:33 58.41873 -135.51508 10978 ft 311 kts 155°
2026-04-29 11:33 58.40018 -135.49513 10642 ft 304 kts 155°
2026-04-29 11:34 58.38175 -135.47544 10429 ft 301 kts 155°
2026-04-29 11:34 58.36388 -135.45633 10305 ft 287 kts 155°
2026-04-29 11:34 58.34698 -135.43825 10186 ft 272 kts 155°
2026-04-29 11:34 58.33079 -135.42099 10072 ft 264 kts 155°
2026-04-29 11:35 58.31483 -135.40408 9912 ft 263 kts 155°
2026-04-29 11:35 58.29858 -135.38692 9383 ft 269 kts 155°
2026-04-29 11:35 58.28238 -135.36976 8886 ft 271 kts 154°
2026-04-29 11:35 58.26638 -135.35270 8804 ft 259 kts 154°
2026-04-29 11:36 58.25081 -135.33614 8745 ft 255 kts 154°
2026-04-29 11:36 58.23534 -135.31980 8635 ft 254 kts 154°
2026-04-29 11:36 58.21991 -135.30352 8515 ft 254 kts 154°
2026-04-29 11:36 58.20452 -135.28726 8398 ft 253 kts 154°
2026-04-29 11:37 58.18946 -135.27010 8293 ft 254 kts 144°
2026-04-29 11:37 58.17974 -135.24226 8240 ft 262 kts 109°
2026-04-29 11:37 58.18032 -135.20787 8190 ft 276 kts 73°
2026-04-29 11:37 58.19031 -135.17663 8184 ft 280 kts 56°
2026-04-29 11:38 58.20188 -135.14689 8158 ft 280 kts 56°
2026-04-29 11:38 58.21232 -135.11602 8127 ft 276 kts 64°
2026-04-29 11:38 58.22050 -135.08328 8005 ft 274 kts 69°
2026-04-29 11:38 58.23151 -135.05420 7925 ft 275 kts 41°
2026-04-29 11:39 58.24844 -135.03765 7801 ft 276 kts 16°
2026-04-29 11:39 58.26738 -135.03207 7669 ft 276 kts
2026-04-29 11:39 58.28628 -135.03005 7538 ft 275 kts
2026-04-29 11:39 58.30521 -135.02662 7295 ft 275 kts
2026-04-29 11:40 58.32396 -135.02093 6834 ft 267 kts 10°
2026-04-29 11:40 58.34178 -135.01397 6318 ft 258 kts 16°
2026-04-29 11:40 58.35652 -134.99570 5584 ft 254 kts 53°
2026-04-29 11:40 58.36233 -134.96636 4851 ft 227 kts 90°
2026-04-29 11:41 58.36073 -134.93760 4251 ft 210 kts 102°
2026-04-29 11:41 58.35827 -134.91092 3585 ft 203 kts 102°
2026-04-29 11:41 58.35681 -134.88555 3254 ft 184 kts 94°
2026-04-29 11:41 58.35688 -134.86230 2954 ft 167 kts 91°
2026-04-29 11:42 58.35716 -134.84115 2700 ft 154 kts 91°
2026-04-29 11:42 58.35733 -134.82112 2320 ft 153 kts 91°
2026-04-29 11:42 58.35750 -134.80075 1857 ft 153 kts 89°
2026-04-29 11:42 58.35865 -134.78126 1543 ft 143 kts 82°
2026-04-29 11:43 58.36073 -134.76342 1267 ft 134 kts 77°
2026-04-29 11:43 58.36284 -134.74647 1086 ft 130 kts 78°
2026-04-29 11:43 58.36436 -134.73008 989 ft 128 kts 84°
2026-04-29 11:43 58.36483 -134.71317 1006 ft 129 kts 89°
2026-04-29 11:44 58.36427 -134.69605 1066 ft 131 kts 96°
2026-04-29 11:44 58.36340 -134.67860 1042 ft 133 kts 92°
2026-04-29 11:44 58.36311 -134.66071 899 ft 139 kts 93°
2026-04-29 11:44 58.36221 -134.64136 764 ft 149 kts 97°
2026-04-29 11:45 58.36065 -134.62196 502 ft 148 kts 100°
2026-04-29 11:45 58.35851 -134.60315 192 ft 141 kts 103°
2026-04-29 11:45 58.35617 -134.58621 35 ft 117 kts 107°
2026-04-29 11:45 58.35472 -134.57587 34 ft 49 kts 105°
2026-04-29 11:46 58.35440 -134.57288 34 ft 15 kts 56°
2026-04-29 11:46 58.35513 -134.57267 34 ft 10 kts 354°
2026-04-29 11:46 58.35565 -134.57351 34 ft 11 kts 285°
2026-04-29 11:46 58.35586 -134.57504 34 ft 12 kts 285°
2026-04-29 11:47 58.35608 -134.57660 34 ft 12 kts 285°
2026-04-29 11:47 58.35630 -134.57809 34 ft 12 kts 287°
2026-04-29 11:47 58.35653 -134.57953 34 ft 11 kts 283°
2026-04-29 11:47 58.35669 -134.58092 34 ft 11 kts 284°
2026-04-29 11:48 58.35715 -134.58174 34 ft 9 kts
2026-04-29 11:48 58.35767 -134.58205 34 ft 8 kts 298°
2026-04-29 11:48 58.35783 -134.58306 34 ft 8 kts 284°
2026-04-29 11:48 58.35815 -134.58374 34 ft 7 kts 333°
2026-04-29 11:49 58.35840 -134.58387 34 ft 0 kts 356°
2026-04-29 11:50 58.35841 -134.58387 34 ft 0 kts 356°